Time,TemperatureF,DewpointF,PressureIn,WindDirection,WindDirectionDegrees,WindSpeedMPH,WindSpeedGustMPH,Humidity,HourlyPrecipIn,Conditions,Clouds,dailyrainin,SoftwareType,DateUTC
2013-09-26 00:14:00,57.3,46.0,29.82,NW,307,2.0,12.0,65,0.00,,,0.00,weatherlink.com 1.10,2013-09-26 07:14:00,
2013-09-26 00:30:00,57.1,46.0,29.82,NNE,29,3.0,10.0,66,0.00,,,0.00,weatherlink.com 1.10,2013-09-26 07:30:00,
2013-09-26 00:45:00,56.7,46.0,29.82,NW,316,2.0,12.0,67,0.00,,,0.00,weatherlink.com 1.10,2013-09-26 07:45:00,
2013-09-26 01:00:00,56.5,46.0,29.82,North,3,2.0,10.0,67,0.00,,,0.00,weatherlink.com 1.10,2013-09-26 08:00:00,
2013-09-26 01:15:00,56.2,46.0,29.82,North,349,2.0,9.0,68,0.00,,,0.00,weatherlink.com 1.10,2013-09-26 08:15:00,
2013-09-26 01:30:00,56.0,46.0,29.82,NNW,334,3.0,10.0,68,0.00,,,0.00,weatherlink.com 1.10,2013-09-26 08:30:00,
2013-09-26 01:45:00,55.8,45.0,29.82,East,89,2.0,8.0,68,0.00,,,0.00,weatherlink.com 1.10,2013-09-26 08:45:00,
2013-09-26 02:00:00,55.6,45.0,29.82,NNE,23,4.0,9.0,68,0.00,,,0.00,weatherlink.com 1.10,2013-09-26 09:00:00,
2013-09-26 02:15:00,55.4,45.0,29.83,NW,312,7.0,11.0,68,0.00,,,0.00,weatherlink.com 1.10,2013-09-26 09:15:00,
2013-09-26 02:45:00,55.2,45.0,29.83,NW,317,5.0,9.0,68,0.00,,,0.00,weatherlink.com 1.10,2013-09-26 09:45:00,
2013-09-26 03:00:00,55.0,45.0,29.83,NNE,33,3.0,6.0,68,0.00,,,0.00,weatherlink.com 1.10,2013-09-26 10:00:00,
2013-09-26 03:15:00,54.9,45.0,29.83,NW,321,2.0,9.0,69,0.00,,,0.00,weatherlink.com 1.10,2013-09-26 10:15:00,
2013-09-26 03:30:00,54.6,44.0,29.84,North,350,1.0,7.0,68,0.00,,,0.00,weatherlink.com 1.10,2013-09-26 10:30:00,
2013-09-26 03:45:00,54.1,44.0,29.84,NE,56,2.0,5.0,69,0.00,,,0.00,weatherlink.com 1.10,2013-09-26 10:45:00,
2013-09-26 04:00:00,54.1,44.0,29.84,NW,312,3.0,7.0,69,0.00,,,0.00,weatherlink.com 1.10,2013-09-26 11:00:00,
2013-09-26 04:15:00,53.9,44.0,29.84,NNE,32,2.0,6.0,70,0.00,,,0.00,weatherlink.com 1.10,2013-09-26 11:15:00,
2013-09-26 04:30:00,54.1,45.0,29.84,NE,50,1.0,10.0,70,0.00,,,0.00,weatherlink.com 1.10,2013-09-26 11:30:00,
2013-09-26 04:45:00,53.9,45.0,29.84,WNW,293,4.0,7.0,71,0.00,,,0.00,weatherlink.com 1.10,2013-09-26 11:45:00,
2013-09-26 05:00:00,54.0,45.0,29.84,NNE,32,2.0,11.0,71,0.00,,,0.00,weatherlink.com 1.10,2013-09-26 12:00:00,
2013-09-26 05:15:00,53.9,45.0,29.84,NE,46,3.0,8.0,71,0.00,,,0.00,weatherlink.com 1.10,2013-09-26 12:15:00,
2013-09-26 05:30:00,53.8,45.0,29.84,NW,319,2.0,9.0,71,0.00,,,0.00,weatherlink.com 1.10,2013-09-26 12:30:00,
2013-09-26 05:45:00,53.8,45.0,29.84,NNE,29,8.0,8.0,71,0.00,,,0.00,weatherlink.com 1.10,2013-09-26 12:45:00,
2013-09-26 06:00:00,53.4,44.0,29.84,North,5,4.0,8.0,71,0.00,,,0.00,weatherlink.com 1.10,2013-09-26 13:00:00,
2013-09-26 06:15:00,53.0,45.0,29.85,NE,42,4.0,7.0,73,0.00,,,0.00,weatherlink.com 1.10,2013-09-26 13:15:00,
2013-09-26 06:30:00,52.8,45.0,29.86,NNE,25,1.0,5.0,74,0.00,,,0.00,weatherlink.com 1.10,2013-09-26 13:30:00,
2013-09-26 06:45:00,52.7,44.0,29.85,NNE,15,4.0,5.0,73,0.00,,,0.00,weatherlink.com 1.10,2013-09-26 13:45:00,
2013-09-26 07:00:00,52.4,44.0,29.86,NE,39,1.0,5.0,73,0.00,,,0.00,weatherlink.com 1.10,2013-09-26 14:00:00,
2013-09-26 07:15:00,52.1,44.0,29.86,NE,54,2.0,4.0,74,0.00,,,0.00,weatherlink.com 1.10,2013-09-26 14:15:00,
2013-09-26 07:30:00,52.3,44.0,29.87,NE,51,4.0,6.0,73,0.00,,,0.00,weatherlink.com 1.10,2013-09-26 14:30:00,
2013-09-26 07:46:00,53.0,43.0,29.88,NNW,345,2.0,7.0,70,0.00,,,0.00,weatherlink.com 1.10,2013-09-26 14:46:00,
2013-09-26 08:01:00,54.0,44.0,29.88,NNW,332,2.0,5.0,68,0.00,,,0.00,weatherlink.com 1.10,2013-09-26 15:01:00,
2013-09-26 08:16:00,54.9,44.0,29.89,NW,317,1.0,6.0,67,0.00,,,0.00,weatherlink.com 1.10,2013-09-26 15:16:00,
2013-09-26 08:31:00,55.7,44.0,29.89,NW,312,3.0,6.0,65,0.00,,,0.00,weatherlink.com 1.10,2013-09-26 15:31:00,
2013-09-26 08:46:00,56.1,44.0,29.90,NNE,30,4.0,10.0,64,0.00,,,0.00,weatherlink.com 1.10,2013-09-26 15:46:00,
2013-09-26 09:01:00,56.6,44.0,29.91,NW,320,3.0,13.0,63,0.00,,,0.00,weatherlink.com 1.10,2013-09-26 16:01:00,
2013-09-26 09:16:00,57.5,44.0,29.92,NNW,341,6.0,12.0,60,0.00,,,0.00,weatherlink.com 1.10,2013-09-26 16:16:00,
2013-09-26 09:31:00,58.6,45.0,29.92,NW,322,8.0,11.0,60,0.00,,,0.00,weatherlink.com 1.10,2013-09-26 16:31:00,
2013-09-26 09:46:00,59.7,44.0,29.92,NW,305,4.0,13.0,56,0.00,,,0.00,weatherlink.com 1.10,2013-09-26 16:46:00,
2013-09-26 10:01:00,60.4,43.0,29.92,NW,324,7.0,12.0,53,0.00,,,0.00,weatherlink.com 1.10,2013-09-26 17:01:00,
2013-09-26 10:16:00,61.6,43.0,29.91,NNW,328,10.0,11.0,50,0.00,,,0.00,weatherlink.com 1.10,2013-09-26 17:16:00,
2013-09-26 10:31:00,62.7,43.0,29.92,WNW,292,5.0,13.0,49,0.00,,,0.00,weatherlink.com 1.10,2013-09-26 17:31:00,
2013-09-26 10:46:00,63.5,42.0,29.92,NW,311,6.0,13.0,46,0.00,,,0.00,weatherlink.com 1.10,2013-09-26 17:46:00,
2013-09-26 11:01:00,64.7,40.0,29.91,NW,316,7.0,10.0,40,0.00,,,0.00,weatherlink.com 1.10,2013-09-26 18:01:00,
2013-09-26 11:16:00,65.4,40.0,29.91,NNW,341,4.0,10.0,40,0.00,,,0.00,weatherlink.com 1.10,2013-09-26 18:16:00,
2013-09-26 11:31:00,65.9,40.0,29.91,WNW,302,5.0,12.0,39,0.00,,,0.00,weatherlink.com 1.10,2013-09-26 18:31:00,
2013-09-26 11:46:00,66.2,41.0,29.90,NW,308,6.0,11.0,40,0.00,,,0.00,weatherlink.com 1.10,2013-09-26 18:46:00,
2013-09-26 12:01:00,67.1,40.0,29.90,NNW,328,4.0,11.0,37,0.00,,,0.00,weatherlink.com 1.10,2013-09-26 19:01:00,
2013-09-26 12:16:00,67.4,40.0,29.90,NW,314,7.0,10.0,37,0.00,,,0.00,weatherlink.com 1.10,2013-09-26 19:16:00,
2013-09-26 12:31:00,68.1,40.0,29.90,NW,314,3.0,13.0,36,0.00,,,0.00,weatherlink.com 1.10,2013-09-26 19:31:00,
2013-09-26 12:46:00,68.7,40.0,29.90,NW,314,3.0,9.0,35,0.00,,,0.00,weatherlink.com 1.10,2013-09-26 19:46:00,
2013-09-26 13:01:00,69.4,39.0,29.90,NW,308,3.0,6.0,33,0.00,,,0.00,weatherlink.com 1.10,2013-09-26 20:01:00,
2013-09-26 13:16:00,70.7,39.0,29.89,NW,324,6.0,12.0,32,0.00,,,0.00,weatherlink.com 1.10,2013-09-26 20:16:00,
2013-09-26 13:31:00,71.2,40.0,29.89,NW,316,9.0,11.0,32,0.00,,,0.00,weatherlink.com 1.10,2013-09-26 20:31:00,
2013-09-26 13:46:00,70.9,39.0,29.89,West,271,4.0,13.0,31,0.00,,,0.00,weatherlink.com 1.10,2013-09-26 20:46:00,
2013-09-26 14:02:00,71.4,42.0,29.88,SSW,195,2.0,10.0,35,0.00,,,0.00,weatherlink.com 1.10,2013-09-26 21:02:00,
2013-09-26 14:17:00,71.4,44.0,29.88,SSW,202,4.0,9.0,38,0.00,,,0.00,weatherlink.com 1.10,2013-09-26 21:17:00,